Regional Weather Roundup
Issued by NWS

Home | Current Version | Previous Version | Graphics & Text | Print | Product List | Glossary Off
Versions: 1 2 3 4 5 6 7 8 9 10 11 12 13 14 15 16 17 18 19 20 21 22 23 24 25 26 27 28 29 30 31 32 33 34 35 36 37 38 39 40 41 42 43 44 45 46 47 48 49 50

000
ASUS43 KTOP 190408
RWRKS

WEATHER ROUNDUP FOR KANSAS
NATIONAL WEATHER SERVICE GOODLAND KS
1100 PM CDT FRI APR 18 2014

NOTE:  "FAIR" INDICATES FEW OR NO CLOUDS BELOW 12,000 FEET WITH NO
SIGNIFICANT WEATHER AND/OR OBSTRUCTIONS TO VISIBILITY.

KSZ001>006-013>018-027>032-041>047-190500-
NORTHWEST KANSAS

CITY           SKY/WX    TMP DP  RH WIND       PRES   REMARKS
GOODLAND       PTCLDY    56  43  61 S25       29.93S
HAYS           CLEAR     57  41  54 SE15      30.03F
HILL CITY      CLEAR     60  41  49 S14       30.00S
RUSSELL        CLEAR     58  41  53 SE16      30.02F
$$

KSZ061>065-074>080-084>089-190500-
SOUTHWEST KANSAS

CITY           SKY/WX    TMP DP  RH WIND       PRES   REMARKS
DODGE CITY     PTCLDY    56  44  64 S18       30.07R
ELKHART          N/A     59  42  53 S17         N/A
GARDEN CITY    PTCLDY    55  42  61 S15       30.02R
GREAT BEND     CLEAR     57  41  54 S15       30.06S
LIBERAL        MOCLDY    55  43  62 SE16      30.05S
PRATT          CLEAR     57  41  54 S12       30.10S
$$

KSZ066>073-081>083-090>101-190500-
SOUTHEAST KANSAS

CITY           SKY/WX    TMP DP  RH WIND       PRES   REMARKS
CHANUTE        CLEAR     57  41  55 SE6       30.17S HAZE
COFFEYVILLE    CLEAR     53  41  63 CALM      30.16R
HUTCHINSON     CLEAR     56  40  55 SE12      30.10S
MEDICINE LODGE   N/A     57  43  59 S9        30.10R
NEWTON         CLEAR     54  37  54 SE10      30.15S
PARSONS        CLEAR     52  39  61 E3        30.18R
WICHITA INTL   PTCLDY    59  40  49 SE12      30.12R
WICHITA JABRA  CLEAR     57  41  55 SE10      30.12S
WICHITA MCCONL CLEAR     58  41  52 SE10      30.13R
WINFIELD       CLEAR     58  40  51 SE8       30.14S
$$

KSZ007>012-019>026-033>040-048>060-102>105-190500-
NORTHEAST KANSAS

CITY           SKY/WX    TMP DP  RH WIND       PRES   REMARKS
CONCORDIA      CLEAR     58  42  55 S10       30.07F
EMPORIA        CLEAR     54  40  59 SE8       30.15R
LAWRENCE       CLEAR     50  42  74 SE6       30.17R
MANHATTAN      PTCLDY    57  41  55 S8        30.12S
OLATHE IND     PTCLDY    56  41  57 SE8       30.18R
OLATHE EXE     PTCLDY    56  40  55 SE6       30.18R
SALINA         CLEAR     56  40  55 SE8       30.09F
TOPEKA BILLARD PTCLDY    55  42  61 SE5       30.16R
TOPEKA FORBES  PTCLDY    55  42  61 SE8       30.16R
$$



USA.gov is the U.S. government's official web portal to all federal, state and local government web resources and services.